Time,TemperatureF,DewpointF,PressureIn,WindDirection,WindDirectionDegrees,WindSpeedMPH,WindSpeedGustMPH,Humidity,HourlyPrecipIn,Conditions,Clouds,dailyrainin,SoftwareType,DateUTC
2013-03-07 00:06:00,34.3,33.8,29.79,ENE,67,17.6,-999.0,98,-99.99,,,0.00,Acu-Link.com,2013-03-07 05:06:00,
2013-03-07 00:21:00,34.0,-13.2,29.77,North,0,23.3,-999.0,12,-99.99,,,0.00,Acu-Link.com,2013-03-07 05:21:00,
2013-03-07 00:36:00,34.3,-56.6,29.77,NNE,22,11.4,-999.0,1,-99.99,,,0.00,Acu-Link.com,2013-03-07 05:36:00,
2013-03-07 00:52:00,34.3,-56.6,29.77,ENE,67,3.7,-999.0,1,-99.99,,,0.00,Acu-Link.com,2013-03-07 05:52:00,
2013-03-07 01:07:00,34.0,-56.8,29.78,NE,45,13.5,-999.0,1,-99.99,,,0.00,Acu-Link.com,2013-03-07 06:07:00,
2013-03-07 01:22:00,33.8,-56.9,29.78,NNE,22,8.3,-999.0,1,-99.99,,,0.00,Acu-Link.com,2013-03-07 06:22:00,
2013-03-07 01:37:00,32.9,-1.7,29.78,NE,45,8.3,-999.0,22,-99.99,,,0.00,Acu-Link.com,2013-03-07 06:37:00,
2013-03-07 01:52:00,32.7,-1.9,29.77,NNE,22,18.6,-999.0,22,-99.99,,,0.00,Acu-Link.com,2013-03-07 06:52:00,
2013-03-07 02:07:00,32.9,7.6,29.76,NNE,22,7.3,-999.0,34,-99.99,,,0.00,Acu-Link.com,2013-03-07 07:07:00,
2013-03-07 02:22:00,32.9,17.2,29.76,NE,45,11.9,-999.0,52,-99.99,,,0.00,Acu-Link.com,2013-03-07 07:22:00,
2013-03-07 02:37:00,33.1,25.1,29.76,NNE,22,15.0,-999.0,72,-99.99,,,0.00,Acu-Link.com,2013-03-07 07:37:00,
2013-03-07 02:52:00,33.3,26.2,29.76,NE,45,9.9,-999.0,75,-99.99,,,0.00,Acu-Link.com,2013-03-07 07:52:00,
2013-03-07 03:07:00,33.4,28.2,29.76,NE,45,17.1,-999.0,81,-99.99,,,0.00,Acu-Link.com,2013-03-07 08:07:00,
2013-03-07 03:22:00,33.4,30.8,29.74,NE,45,4.7,-999.0,90,-99.99,,,0.00,Acu-Link.com,2013-03-07 08:22:00,
2013-03-07 03:37:00,33.4,31.6,29.76,NE,45,12.5,-999.0,93,-99.99,,,0.00,Acu-Link.com,2013-03-07 08:37:00,
2013-03-07 03:53:00,33.4,32.9,29.74,North,0,22.2,-999.0,98,-99.99,,,0.00,Acu-Link.com,2013-03-07 08:53:00,
2013-03-07 04:08:00,33.4,32.9,29.77,NE,45,15.5,-999.0,98,-99.99,,,0.00,Acu-Link.com,2013-03-07 09:08:00,
2013-03-07 04:23:00,33.4,32.9,29.78,NE,45,22.7,-999.0,98,-99.99,,,0.00,Acu-Link.com,2013-03-07 09:23:00,
2013-03-07 04:38:00,33.4,32.9,29.78,NE,45,20.7,-999.0,98,-99.99,,,0.00,Acu-Link.com,2013-03-07 09:38:00,
2013-03-07 04:53:00,33.3,32.8,29.79,NE,45,15.0,-999.0,98,-99.99,,,0.00,Acu-Link.com,2013-03-07 09:53:00,
2013-03-07 05:08:00,33.3,32.8,29.77,NE,45,15.0,-999.0,98,-99.99,,,0.00,Acu-Link.com,2013-03-07 10:08:00,
2013-03-07 05:23:00,33.4,32.9,29.79,NE,45,10.4,-999.0,98,-99.99,,,0.00,Acu-Link.com,2013-03-07 10:23:00,
2013-03-07 05:38:00,33.1,32.6,29.78,East,90,9.4,-999.0,98,-99.99,,,0.00,Acu-Link.com,2013-03-07 10:38:00,
2013-03-07 05:53:00,33.6,33.1,29.77,NE,45,11.9,-999.0,98,-99.99,,,0.00,Acu-Link.com,2013-03-07 10:53:00,
2013-03-07 06:08:00,33.3,32.8,29.79,NE,45,15.5,-999.0,98,-99.99,,,0.00,Acu-Link.com,2013-03-07 11:08:00,
2013-03-07 06:23:00,32.7,32.2,29.80,NE,45,17.1,-999.0,98,-99.99,,,0.00,Acu-Link.com,2013-03-07 11:23:00,
2013-03-07 06:38:00,32.0,31.5,29.81,NE,45,15.0,-999.0,98,-99.99,,,0.00,Acu-Link.com,2013-03-07 11:38:00,
2013-03-07 06:53:00,31.5,31.0,29.80,WNW,292,9.4,-999.0,98,-99.99,,,0.00,Acu-Link.com,2013-03-07 11:53:00,
2013-03-07 07:08:00,31.1,30.6,29.81,NNE,22,6.8,-999.0,98,-99.99,,,0.00,Acu-Link.com,2013-03-07 12:08:00,
2013-03-07 07:24:00,31.1,29.3,29.80,ENE,67,16.1,-999.0,93,-99.99,,,0.00,Acu-Link.com,2013-03-07 12:24:00,
2013-03-07 07:39:00,31.5,26.1,29.81,NE,45,10.9,-999.0,80,-99.99,,,0.00,Acu-Link.com,2013-03-07 12:39:00,
2013-03-07 07:54:00,31.8,28.7,29.81,East,90,4.2,-999.0,88,-99.99,,,0.00,Acu-Link.com,2013-03-07 12:54:00,
2013-03-07 08:09:00,32.5,30.7,29.84,NNE,22,7.3,-999.0,93,-99.99,,,0.00,Acu-Link.com,2013-03-07 13:09:00,
2013-03-07 08:24:00,33.1,32.6,29.83,NE,45,15.5,-999.0,98,-99.99,,,0.00,Acu-Link.com,2013-03-07 13:24:00,
2013-03-07 08:40:00,33.3,32.8,29.82,WNW,292,10.4,-999.0,98,-99.99,,,0.00,Acu-Link.com,2013-03-07 13:40:00,
2013-03-07 08:55:00,33.3,32.8,29.84,NE,45,11.9,-999.0,98,-99.99,,,0.00,Acu-Link.com,2013-03-07 13:55:00,
2013-03-07 09:10:00,32.5,32.0,29.83,West,270,8.9,-999.0,98,-99.99,,,0.00,Acu-Link.com,2013-03-07 14:10:00,
2013-03-07 09:25:00,32.2,31.7,29.83,NE,45,11.9,-999.0,98,-99.99,,,0.00,Acu-Link.com,2013-03-07 14:25:00,
2013-03-07 09:41:00,32.7,32.2,29.82,NNE,22,10.9,-999.0,98,-99.99,,,0.00,Acu-Link.com,2013-03-07 14:41:00,
2013-03-07 09:56:00,32.9,32.4,29.82,NE,45,9.9,-999.0,98,-99.99,,,0.00,Acu-Link.com,2013-03-07 14:56:00,
2013-03-07 10:11:00,33.1,32.6,29.83,ENE,67,7.3,-999.0,98,-99.99,,,0.00,Acu-Link.com,2013-03-07 15:11:00,
2013-03-07 10:26:00,33.3,32.8,29.85,ENE,67,10.9,-999.0,98,-99.99,,,0.00,Acu-Link.com,2013-03-07 15:26:00,
2013-03-07 10:41:00,33.1,30.2,29.82,NE,45,9.4,-999.0,89,-99.99,,,0.00,Acu-Link.com,2013-03-07 15:41:00,
2013-03-07 10:57:00,34.0,-56.8,29.84,NNE,22,4.2,-999.0,1,-99.99,,,0.00,Acu-Link.com,2013-03-07 15:57:00,
2013-03-07 11:12:00,35.2,-56.1,29.86,NE,45,7.8,-999.0,1,-99.99,,,0.00,Acu-Link.com,2013-03-07 16:12:00,
2013-03-07 11:27:00,35.6,-55.8,29.84,NE,45,11.9,-999.0,1,-99.99,,,0.00,Acu-Link.com,2013-03-07 16:27:00,
2013-03-07 11:42:00,36.7,-43.9,29.85,NNE,22,8.9,-999.0,2,-99.99,,,0.00,Acu-Link.com,2013-03-07 16:42:00,
2013-03-07 11:57:00,36.9,21.4,29.84,North,0,0.0,-999.0,53,-99.99,,,0.00,Acu-Link.com,2013-03-07 16:57:00,
2013-03-07 12:13:00,37.0,29.5,29.83,ENE,67,8.9,-999.0,74,-99.99,,,0.00,Acu-Link.com,2013-03-07 17:13:00,
2013-03-07 12:28:00,37.2,34.3,29.83,East,90,17.1,-999.0,89,-99.99,,,0.00,Acu-Link.com,2013-03-07 17:28:00,
2013-03-07 12:43:00,36.9,36.4,29.85,NE,45,8.9,-999.0,98,-99.99,,,0.00,Acu-Link.com,2013-03-07 17:43:00,
2013-03-07 12:58:00,36.1,35.6,29.85,NE,45,5.3,-999.0,98,-99.99,,,0.00,Acu-Link.com,2013-03-07 17:58:00,
2013-03-07 13:13:00,36.3,35.8,29.85,West,270,2.2,-999.0,98,-99.99,,,0.00,Acu-Link.com,2013-03-07 18:13:00,
2013-03-07 13:29:00,35.6,35.1,29.83,NE,45,10.4,-999.0,98,-99.99,,,0.00,Acu-Link.com,2013-03-07 18:29:00,
2013-03-07 13:59:00,35.4,16.7,29.84,North,0,3.7,-999.0,46,-99.99,,,0.00,Acu-Link.com,2013-03-07 18:59:00,
2013-03-07 14:14:00,34.9,-56.3,29.85,North,0,9.4,-999.0,1,-99.99,,,0.00,Acu-Link.com,2013-03-07 19:14:00,
2013-03-07 14:45:00,34.3,-45.5,29.84,ENE,67,8.3,-999.0,2,-99.99,,,0.00,Acu-Link.com,2013-03-07 19:45:00,
2013-03-07 15:00:00,34.7,-14.4,29.85,NNW,337,1.1,-999.0,11,-99.99,,,0.00,Acu-Link.com,2013-03-07 20:00:00,
2013-03-07 15:16:00,34.7,3.4,29.85,West,270,1.7,-999.0,26,-99.99,,,0.00,Acu-Link.com,2013-03-07 20:16:00,
2013-03-07 15:46:00,34.2,14.1,29.85,WNW,292,1.1,-999.0,43,-99.99,,,0.00,Acu-Link.com,2013-03-07 20:46:00,
2013-03-07 16:01:00,34.0,15.9,29.85,NNW,337,3.2,-999.0,47,-99.99,,,0.01,Acu-Link.com,2013-03-07 21:01:00,
2013-03-07 16:16:00,34.0,11.7,29.87,West,270,2.2,-999.0,39,-99.99,,,0.01,Acu-Link.com,2013-03-07 21:16:00,
2013-03-07 16:32:00,34.0,9.9,29.88,NNW,337,4.2,-999.0,36,-99.99,,,0.01,Acu-Link.com,2013-03-07 21:32:00,
2013-03-07 16:47:00,33.6,11.3,29.87,NNE,22,3.7,-999.0,39,-99.99,,,0.01,Acu-Link.com,2013-03-07 21:47:00,
2013-03-07 17:02:00,33.4,11.1,29.87,NE,45,0.0,-999.0,39,-99.99,,,0.01,Acu-Link.com,2013-03-07 22:02:00,
2013-03-07 17:18:00,33.3,8.6,29.87,NNE,22,0.0,-999.0,35,-99.99,,,0.01,Acu-Link.com,2013-03-07 22:18:00,
2013-03-07 17:33:00,33.1,10.3,29.89,West,270,0.0,-999.0,38,-99.99,,,0.01,Acu-Link.com,2013-03-07 22:33:00,
2013-03-07 17:48:00,32.9,13.4,29.88,WSW,247,0.0,-999.0,44,-99.99,,,0.01,Acu-Link.com,2013-03-07 22:48:00,
2013-03-07 18:03:00,32.7,8.7,29.87,NE,45,6.8,-999.0,36,-99.99,,,0.01,Acu-Link.com,2013-03-07 23:03:00,
2013-03-07 18:19:00,32.5,-6.2,29.89,North,0,0.0,-999.0,18,-99.99,,,0.01,Acu-Link.com,2013-03-07 23:19:00,
2013-03-07 18:34:00,32.4,-57.8,29.89,NE,45,8.3,-999.0,1,-99.99,,,0.01,Acu-Link.com,2013-03-07 23:34:00,
2013-03-07 18:49:00,32.4,-57.8,29.89,West,270,0.0,-999.0,1,-99.99,,,0.01,Acu-Link.com,2013-03-07 23:49:00,
2013-03-07 19:04:00,32.2,-57.9,29.89,NE,45,7.3,-999.0,1,-99.99,,,0.01,Acu-Link.com,2013-03-08 00:04:00,
2013-03-07 19:20:00,32.2,-57.9,29.89,ENE,67,0.0,-999.0,1,-99.99,,,0.01,Acu-Link.com,2013-03-08 00:20:00,
2013-03-07 19:35:00,32.2,-57.9,29.90,SW,225,0.0,-999.0,1,-99.99,,,0.01,Acu-Link.com,2013-03-08 00:35:00,
2013-03-07 19:50:00,32.2,-57.9,29.87,NNW,337,0.0,-999.0,1,-99.99,,,0.01,Acu-Link.com,2013-03-08 00:50:00,
2013-03-07 20:06:00,32.2,-57.9,29.89,West,270,0.0,-999.0,1,-99.99,,,0.01,Acu-Link.com,2013-03-08 01:06:00,
2013-03-07 20:21:00,32.2,-57.9,29.87,NNE,22,0.0,-999.0,1,-99.99,,,0.01,Acu-Link.com,2013-03-08 01:21:00,
2013-03-07 20:36:00,32.2,-57.9,29.87,WNW,292,0.0,-999.0,1,-99.99,,,0.01,Acu-Link.com,2013-03-08 01:36:00,
2013-03-07 20:52:00,32.0,-58.1,29.88,SW,225,4.2,-999.0,1,-99.99,,,0.01,Acu-Link.com,2013-03-08 01:52:00,
2013-03-07 21:07:00,32.0,-58.1,29.87,NW,315,0.0,-999.0,1,-99.99,,,0.01,Acu-Link.com,2013-03-08 02:07:00,
2013-03-07 21:22:00,32.2,-57.9,29.87,NE,45,0.0,-999.0,1,-99.99,,,0.01,Acu-Link.com,2013-03-08 02:22:00,
2013-03-07 21:37:00,32.2,-57.9,29.87,NE,45,0.0,-999.0,1,-99.99,,,0.01,Acu-Link.com,2013-03-08 02:37:00,
2013-03-07 21:53:00,32.2,-57.9,29.88,NE,45,1.1,-999.0,1,-99.99,,,0.01,Acu-Link.com,2013-03-08 02:53:00,
2013-03-07 22:08:00,32.4,-57.8,29.86,West,270,1.1,-999.0,1,-99.99,,,0.01,Acu-Link.com,2013-03-08 03:08:00,
2013-03-07 22:23:00,32.4,-57.8,29.85,West,270,0.0,-999.0,1,-99.99,,,0.01,Acu-Link.com,2013-03-08 03:23:00,
2013-03-07 22:38:00,32.5,-57.8,29.87,SW,225,0.0,-999.0,1,-99.99,,,0.01,Acu-Link.com,2013-03-08 03:38:00,
2013-03-07 22:53:00,32.9,-57.5,29.85,West,270,0.0,-999.0,1,-99.99,,,0.01,Acu-Link.com,2013-03-08 03:53:00,
2013-03-07 23:09:00,32.9,-57.5,29.86,West,270,0.0,-999.0,1,-99.99,,,0.01,Acu-Link.com,2013-03-08 04:09:00,
2013-03-07 23:24:00,32.7,-57.6,29.85,NNW,337,0.0,-999.0,1,-99.99,,,0.01,Acu-Link.com,2013-03-08 04:24:00,
2013-03-07 23:39:00,32.5,-57.8,29.84,NNE,22,0.0,-999.0,1,-99.99,,,0.01,Acu-Link.com,2013-03-08 04:39:00,
2013-03-07 23:55:00,32.5,-57.8,29.86,NE,45,0.0,-999.0,1,-99.99,,,0.01,Acu-Link.com,2013-03-08 04:55:00,